DW6376 Weather Reports


Display with metric or nautical units.
time (UTC)temp
F
wind
direction
speed
MPH
gust
MPH
rain 1hr
in
rain 24hr
in
rain mn
in
humidity
%
barometer
mb
20260508191525 72 355 1.0 0.0 0.00 0.00 0.00 25 1014.5
20260508190022 71 116 1.0 0.0 0.00 0.00 0.00 25 1014.8
20260508184502 70 44 1.0 0.0 0.00 0.00 0.00 26 1015.0
20260508183100 70 360 1.0 0.0 0.00 0.00 0.00 29 1015.1
20260508181559 69 291 0.0 0.0 0.00 0.00 0.00 30 1015.1
20260508180045 68 41 1.0 0.0 0.00 0.00 0.00 30 1015.2
20260508174545 68 43 1.0 0.0 0.00 0.00 0.00 29 1015.3
20260508173046 67 5 0.0 0.0 0.00 0.00 0.00 28 1015.4
20260508171538 67 317 1.0 0.0 0.00 0.00 0.00 30 1015.4
20260508170039 65 33 0.0 0.0 0.00 0.00 0.00 44 1015.3
20260508164532 64 33 0.0 0.0 0.00 0.00 0.00 43 1015.2
20260508163029 63 33 0.0 0.0 0.00 0.00 0.00 44 1015.2
20260508161513 62 33 0.0 0.0 0.00 0.00 0.00 46 1015.1
20260508160016 60 33 0.0 0.0 0.00 0.00 0.00 47 1015.1
20260508154507 59 33 0.0 0.0 0.00 0.00 0.00 51 1015.2
20260508153003 58 33 0.0 0.0 0.00 0.00 0.00 51 1015.2
20260508151604 56 33 0.0 0.0 0.00 0.00 0.00 53 1015.1
20260508144620 52 33 0.0 0.0 0.00 0.00 0.00 67 1015.1
20260508143109 51 33 0.0 0.0 0.00 0.00 0.00 67 1015.2
20260508141550 50 33 0.0 0.0 0.00 0.00 0.00 70 1015.2
20260508140046 49 33 0.0 0.0 0.00 0.00 0.00 72 1015.1
20260508134541 49 33 0.0 0.0 0.00 0.00 0.00 69 1015.1
20260508133104 48 33 0.0 0.0 0.00 0.00 0.00 67 1015.0
20260508131533 48 33 0.0 0.0 0.00 0.00 0.00 64 1014.9
20260508130031 49 33 0.0 0.0 0.00 0.00 0.00 62 1014.8
20260508124533 49 33 0.0 0.0 0.00 0.00 0.00 60 1014.5
20260508123028 49 33 0.0 0.0 0.00 0.00 0.00 63 1014.4
20260508121534 49 33 0.0 0.0 0.00 0.00 0.00 62 1014.3
20260508120008 49 33 0.0 0.0 0.00 0.00 0.00 60 1014.2
20260508114508 49 33 0.0 0.0 0.00 0.00 0.00 61 1014.3
20260508113106 49 33 0.0 0.0 0.00 0.00 0.00 59 1014.2
20260508111602 50 33 0.0 0.0 0.00 0.00 0.00 59 1014.0
20260508110056 50 33 0.0 0.0 0.00 0.00 0.00 58 1014.1
20260508104550 50 33 0.0 0.0 0.00 0.00 0.00 56 1013.9
20260508103058 50 33 0.0 0.0 0.00 0.00 0.00 56 1013.8
20260508101549 50 33 0.0 0.0 0.00 0.00 0.00 57 1013.8
20260508100046 51 33 0.0 0.0 0.00 0.00 0.00 55 1013.9
20260508094545 51 33 0.0 0.0 0.00 0.00 0.00 55 1013.7
20260508093030 51 33 0.0 0.0 0.00 0.00 0.00 56 1013.7
20260508091525 52 33 0.0 0.0 0.00 0.00 0.00 55 1013.5
20260508090011 52 33 0.0 0.0 0.00 0.00 0.00 53 1013.5
20260508084504 52 33 0.0 0.0 0.00 0.00 0.00 53 1013.5
20260508083045 52 33 0.0 0.0 0.00 0.00 0.00 53 1013.7
20260508081544 53 33 0.0 0.0 0.00 0.00 0.00 52 1013.7
20260508080031 53 33 0.0 0.0 0.00 0.00 0.00 50 1013.6
20260508074539 54 33 0.0 0.0 0.00 0.00 0.00 50 1013.6
20260508073033 54 33 0.0 0.0 0.00 0.00 0.00 51 1013.7
20260508071530 54 33 0.0 0.0 0.00 0.00 0.00 49 1013.9
20260508070025 54 33 0.0 0.0 0.00 0.00 0.00 50 1014.0
20260508064524 54 33 0.0 0.0 0.00 0.00 0.00 50 1013.9
20260508063023 54 33 0.0 0.0 0.00 0.00 0.00 47 1013.8
20260508061524 54 33 0.0 0.0 0.00 0.00 0.00 49 1013.6
20260508060011 55 33 0.0 0.0 0.00 0.00 0.00 49 1013.4
20260508054511 55 33 0.0 0.0 0.00 0.00 0.00 48 1013.4
20260508053018 56 33 0.0 0.0 0.00 0.00 0.00 47 1013.4
20260508051511 56 33 0.0 0.0 0.00 0.00 0.00 45 1013.4
20260508050010 57 33 0.0 0.0 0.00 0.00 0.00 46 1013.5
20260508044510 57 33 0.0 0.0 0.00 0.00 0.00 45 1013.5
20260508043009 58 33 0.0 0.0 0.00 0.00 0.00 44 1013.6
20260508041509 58 33 0.0 0.0 0.00 0.00 0.00 41 1013.7
20260508040110 59 33 0.0 0.0 0.00 0.00 0.00 42 1013.7
20260508034603 60 33 0.0 0.0 0.00 0.00 0.00 42 1013.5
20260508033055 61 33 0.0 0.0 0.00 0.00 0.00 41 1013.3
20260508031559 62 33 0.0 0.0 0.00 0.00 0.00 41 1013.3
20260508030055 63 33 0.0 0.0 0.00 0.00 0.00 38 1013.2
20260508024605 64 33 0.0 0.0 0.00 0.00 0.00 39 1013.0
20260508023054 66 33 0.0 0.0 0.00 0.00 0.00 35 1013.0
20260508021554 68 33 0.0 0.0 0.00 0.00 0.00 34 1012.9
20260508020046 70 33 0.0 0.0 0.00 0.00 0.00 30 1012.9
20260508014540 71 33 0.0 0.0 0.00 0.00 0.00 33 1012.9
20260508013039 72 33 0.0 0.0 0.00 0.00 0.00 31 1013.0
20260508011546 72 33 0.0 0.0 0.00 0.00 0.00 28 1013.0
20260508010036 72 33 0.0 0.0 0.00 0.00 0.00 25 1013.3
20260508004534 72 33 0.0 0.0 0.00 0.00 0.00 27 1013.5
20260508003036 72 33 0.0 0.0 0.00 0.00 0.00 27 1013.6
20260508001530 73 33 0.0 0.0 0.00 0.00 0.00 23 1013.8
20260508000018 74 38 0.0 0.0 0.00 0.00 0.00 24 1014.0
20260507234516 75 38 1.0 0.0 0.00 0.00 0.00 23 1014.0
20260507233029 75 30 1.0 0.0 0.00 0.00 0.00 22 1014.3
20260507231513 75 21 0.0 0.0 0.00 0.00 0.00 25 1014.3
20260507230011 76 32 1.0 0.0 0.00 0.00 0.00 21 1014.6
20260507224509 76 21 1.0 0.0 0.00 0.00 0.00 23 1014.9
20260507223006 75 21 0.0 0.0 0.00 0.00 0.00 22 1015.1
20260507221504 75 21 0.0 0.0 0.00 0.00 0.00 23 1015.3
20260507220048 74 28 0.0 0.0 0.00 0.00 0.00 25 1015.5
20260507214546 73 355 1.0 0.0 0.00 0.00 0.00 23 1015.8
20260507213058 73 252 0.0 0.0 0.00 0.00 0.00 25 1016.0
20260507211547 74 28 0.0 0.0 0.00 0.00 0.00 25 1016.2
20260507210048 74 28 0.0 0.0 0.00 0.00 0.00 23 1016.5
20260507204538 73 28 0.0 0.0 0.00 0.00 0.00 24 1016.9
20260507203041 72 28 0.0 0.0 0.00 0.00 0.00 25 1017.3
20260507201531 71 20 0.0 0.0 0.00 0.00 0.00 24 1017.6
20260507200015 70 20 0.0 0.0 0.00 0.00 0.00 27 1017.8
20260507194514 70 20 0.0 0.0 0.00 0.00 0.00 27 1018.0
20260507193015 69 20 0.0 0.0 0.00 0.00 0.00 25 1018.5